EJA220 KAPA-KASE

Flight info

Callsign EJA220
Flight time 0h 25m
Altitude 24000
Route WNGSS1 WNGSS DCT BAYLR DCT MMARY MMARY1
Aircraft CL60/M-SBDE1E2E3FGHIJ1J4J5J7M3RWXYZ/LB1V1D1

Departure

Time 2026-05-07 14:27
Airport Centennial Airport (KAPA)

Arrival

Time 2026-05-07 14:52
Airport Aspen-Pitkin County Airport (Sardy Field) (KASE)
Time Latitude Longitude Altitude Speed Heading
2026-05-07 14:16 39.57046 -104.84807 5835 ft 0 kts 177°
2026-05-07 14:23 39.57041 -104.84838 5836 ft 14 kts 305°
2026-05-07 14:23 39.57127 -104.84896 5834 ft 8 kts 318°
2026-05-07 14:24 39.57169 -104.84950 5833 ft 15 kts 352°
2026-05-07 14:24 39.57364 -104.84959 5826 ft 29 kts 357°
2026-05-07 14:24 39.57590 -104.84970 5820 ft 35 kts 355°
2026-05-07 14:24 39.57855 -104.84985 5812 ft 40 kts 359°
2026-05-07 14:25 39.58135 -104.84992 5803 ft 34 kts 358°
2026-05-07 14:25 39.58361 -104.85004 5796 ft 16 kts
2026-05-07 14:25 39.58412 -104.85036 5795 ft 8 kts 276°
2026-05-07 14:25 39.58409 -104.85120 5794 ft 5 kts 264°
2026-05-07 14:26 39.58384 -104.85146 5795 ft 5 kts 179°
2026-05-07 14:26 39.58222 -104.85139 5800 ft 61 kts 178°
2026-05-07 14:26 39.57484 -104.85100 5824 ft 146 kts 179°
2026-05-07 14:26 39.56334 -104.85085 6259 ft 181 kts 191°
2026-05-07 14:27 39.55168 -104.85817 7156 ft 199 kts 227°
2026-05-07 14:27 39.54528 -104.87405 8161 ft 215 kts 264°
2026-05-07 14:27 39.54713 -104.89292 9367 ft 221 kts 286°
2026-05-07 14:27 39.55164 -104.91312 10129 ft 252 kts 287°
2026-05-07 14:28 39.55735 -104.93552 11031 ft 274 kts 297°
2026-05-07 14:30 39.66831 -105.08345 20139 ft 303 kts 316°
2026-05-07 14:30 39.68366 -105.10209 21073 ft 306 kts 317°
2026-05-07 14:30 39.69927 -105.12106 21945 ft 311 kts 317°
2026-05-07 14:30 39.71498 -105.14017 22787 ft 315 kts 316°
2026-05-07 14:31 39.73114 -105.15985 23588 ft 321 kts 316°
2026-05-07 14:31 39.74721 -105.18100 24006 ft 337 kts 308°
2026-05-07 14:31 39.75925 -105.20857 24138 ft 361 kts 292°
2026-05-07 14:31 39.76361 -105.24184 24186 ft 388 kts 272°
2026-05-07 14:32 39.75740 -105.27717 24195 ft 413 kts 250°
2026-05-07 14:32 39.74137 -105.30881 24182 ft 424 kts 237°
2026-05-07 14:32 39.72306 -105.33871 24215 ft 419 kts 237°
2026-05-07 14:32 39.70514 -105.36822 24225 ft 417 kts 237°
2026-05-07 14:33 39.68720 -105.39784 24260 ft 416 kts 237°
2026-05-07 14:33 39.66928 -105.42745 24218 ft 418 kts 237°
2026-05-07 14:33 39.65216 -105.45575 24235 ft 416 kts 237°
2026-05-07 14:33 39.63419 -105.48547 24262 ft 417 kts 237°
2026-05-07 14:34 39.61628 -105.51508 24258 ft 417 kts 237°
2026-05-07 14:34 39.59819 -105.54501 24269 ft 418 kts 237°
2026-05-07 14:34 39.58034 -105.57452 24264 ft 418 kts 237°
2026-05-07 14:34 39.56412 -105.60564 24260 ft 411 kts 248°
2026-05-07 14:35 39.55499 -105.63966 24251 ft 401 kts 263°
2026-05-07 14:35 39.55265 -105.67570 24235 ft 397 kts 272°
2026-05-07 14:35 39.55234 -105.71178 24259 ft 397 kts 272°
2026-05-07 14:35 39.55194 -105.74781 24253 ft 398 kts 272°
2026-05-07 14:36 39.55153 -105.78346 24260 ft 398 kts 272°
2026-05-07 14:36 39.55111 -105.81936 24263 ft 398 kts 272°
2026-05-07 14:36 39.55068 -105.85483 24261 ft 398 kts 272°
2026-05-07 14:36 39.55023 -105.89095 24258 ft 398 kts 272°
2026-05-07 14:37 39.54977 -105.92664 24252 ft 398 kts 272°
2026-05-07 14:37 39.54882 -105.99850 24247 ft 396 kts 272°
2026-05-07 14:37 39.54834 -106.03267 24250 ft 389 kts 273°
2026-05-07 14:38 39.54784 -106.06738 24261 ft 380 kts 272°
2026-05-07 14:38 39.54734 -106.10116 24048 ft 369 kts 272°
2026-05-07 14:38 39.54685 -106.13368 23608 ft 361 kts 272°
2026-05-07 14:38 39.54636 -106.16619 23154 ft 354 kts 273°
2026-05-07 14:39 39.54588 -106.19772 22711 ft 347 kts 273°
2026-05-07 14:39 39.54540 -106.22868 22264 ft 340 kts 272°
2026-05-07 14:39 39.54493 -106.25897 21829 ft 334 kts 273°
2026-05-07 14:39 39.54445 -106.28863 21393 ft 329 kts 273°
2026-05-07 14:40 39.54398 -106.31780 20966 ft 323 kts 273°
2026-05-07 14:40 39.54350 -106.34683 20534 ft 318 kts 273°
2026-05-07 14:40 39.54303 -106.37507 20123 ft 313 kts 273°
2026-05-07 14:40 39.54256 -106.40295 19712 ft 308 kts 273°
2026-05-07 14:41 39.54221 -106.43072 19297 ft 303 kts 275°
2026-05-07 14:41 39.54276 -106.45777 18926 ft 297 kts 276°
2026-05-07 14:41 39.54342 -106.48418 18597 ft 291 kts 276°
2026-05-07 14:41 39.54405 -106.51006 18306 ft 284 kts 276°
2026-05-07 14:42 39.54467 -106.53545 17809 ft 286 kts 276°
2026-05-07 14:42 39.54530 -106.56097 17415 ft 283 kts 276°
2026-05-07 14:42 39.54591 -106.58621 17103 ft 277 kts 276°
2026-05-07 14:42 39.54650 -106.61097 16789 ft 272 kts 276°
2026-05-07 14:43 39.54707 -106.63506 16493 ft 267 kts 276°
2026-05-07 14:43 39.54763 -106.65914 16184 ft 264 kts 275°
2026-05-07 14:43 39.54806 -106.68279 15879 ft 262 kts 272°
2026-05-07 14:43 39.54415 -106.70609 15506 ft 269 kts 255°
2026-05-07 14:44 39.53774 -106.72918 14997 ft 277 kts 255°
2026-05-07 14:44 39.53122 -106.75297 14491 ft 280 kts 254°
2026-05-07 14:44 39.52481 -106.77653 14163 ft 279 kts 255°
2026-05-07 14:44 39.51844 -106.80028 13725 ft 280 kts 255°
2026-05-07 14:45 39.51537 -106.82452 13564 ft 263 kts 276°
2026-05-07 14:45 39.51696 -106.84722 13544 ft 248 kts 278°
2026-05-07 14:45 39.51840 -106.86797 13543 ft 239 kts 278°
2026-05-07 14:45 39.51983 -106.88945 13516 ft 240 kts 277°
2026-05-07 14:46 39.51917 -106.91094 13336 ft 243 kts 264°
2026-05-07 14:46 39.51433 -106.93222 13230 ft 248 kts 251°
2026-05-07 14:46 39.50547 -106.95157 13021 ft 254 kts 236°
2026-05-07 14:46 39.49287 -106.96743 12871 ft 245 kts 220°
2026-05-07 14:47 39.47848 -106.97800 12716 ft 233 kts 206°
2026-05-07 14:47 39.46331 -106.98367 12570 ft 225 kts 192°
2026-05-07 14:47 39.44739 -106.98476 12413 ft 227 kts 178°
2026-05-07 14:47 39.43180 -106.98144 12285 ft 227 kts 169°
2026-05-07 14:48 39.41641 -106.97695 12102 ft 228 kts 169°
2026-05-07 14:48 39.40093 -106.97250 11845 ft 227 kts 168°
2026-05-07 14:48 39.38559 -106.96815 11537 ft 224 kts 169°
2026-05-07 14:48 39.37042 -106.96384 11258 ft 220 kts 168°
2026-05-07 14:49 39.35566 -106.95958 10916 ft 213 kts 168°
2026-05-07 14:49 39.34141 -106.95545 10587 ft 206 kts 168°
2026-05-07 14:49 39.32760 -106.95145 10289 ft 198 kts 168°
2026-05-07 14:49 39.31481 -106.94595 9964 ft 193 kts 153°
2026-05-07 14:50 39.30425 -106.93598 9673 ft 184 kts 134°
2026-05-07 14:50 39.29699 -106.92297 9370 ft 171 kts 115°
2026-05-07 14:50 39.29213 -106.90994 9153 ft 155 kts 122°
2026-05-07 14:50 39.28466 -106.89986 8898 ft 154 kts 144°
2026-05-07 14:51 39.27520 -106.89366 8688 ft 153 kts 160°
2026-05-07 14:51 39.26534 -106.88922 8606 ft 153 kts 160°
2026-05-07 14:51 39.25521 -106.88425 8346 ft 153 kts 159°
2026-05-07 14:51 39.24527 -106.87955 8058 ft 151 kts 158°
2026-05-07 14:52 39.23548 -106.87479 7788 ft 150 kts 159°
2026-05-07 14:52 39.22597 -106.87021 7722 ft 130 kts 159°
2026-05-07 14:52 39.21920 -106.86696 7773 ft 72 kts 159°
2026-05-07 14:52 39.21711 -106.86595 7788 ft 17 kts 159°
2026-05-07 14:53 39.21703 -106.86491 7794 ft 14 kts 37°
2026-05-07 14:53 39.21804 -106.86517 7789 ft 18 kts 340°
2026-05-07 14:53 39.21958 -106.86590 7777 ft 28 kts 339°
2026-05-07 14:53 39.22068 -106.86602 7771 ft 11 kts 64°
2026-05-07 14:54 39.22088 -106.86603 7770 ft 0 kts 245°